Weather History for Tacoma, WA

Change the Weather History Date:

Tuesday, June 18, 2013

  Actual Average Record
Temperature  
Mean Temperature 60 °F -  
Max Temperature 71 °F 68 °F 93 °F (1982)
Min Temperature 50 °F 48 °F 42 °F (1960)
Degree Days  
Heating Degree Days 4    
Growing Degree Days 10 (Base 50)    
Moisture  
Dew Point 50 °F    
Average Humidity 71    
Maximum Humidity 100    
Minimum Humidity 37    
Precipitation  
Precipitation 0.01 in - - ()
Sea Level Pressure  
Sea Level Pressure 29.97 in    
Wind  
Wind Speed 5 mph (SW)    
Max Wind Speed 15 mph    
Max Gust Speed 25 mph    
Visibility 10 miles    
Events Rain , Thunderstorm    
Averages and records for this station are not official NWS values.
T = Trace of Precipitation, MM = Missing Value Source: NWS Daily Summary

Daily Weather History Graph

Daily Weather History Graph

Search for Another Location

Airport:

Trip Planner

Search our weather history database for the weather conditions in past years. The results will help you decide how hot, cold, wet, or windy it might be!

Date:

Astronomy

Jun. 18, 2013 Rise Set
Actual Time 5:13 AM PDT 9:08 PM PDT
Civil Twilight 4:33 AM PDT 9:48 PM PDT
Nautical Twilight 3:38 AM PDT 10:43 PM PDT
Astronomical Twilight 2:14 AM PDT 12:07 AM PDT
Moon 3:44 PM PDT (6/18) 1:42 AM PDT (6/18)
Length of Visible Light 17h 14m
Length of Day
15h 54m
Waxing Gibbous, 72% of the Moon is Illuminated
Jun 18
Waxing Gibbous
Jun 23
Full
Jun 29
Last Quarter
Jul 8
New
Jul 15
First Quarter

Hourly Weather History & Observations

Time (PDT) Temp. Dew Point Humidity Pressure Visibility Wind Dir Wind Speed Gust Speed Precip Events Conditions
12:58 AM 55.8 °F 53.6 °F 92% 30.01 in 10.0 mi ESE 4.6 mph - N/A   Overcast
1:58 AM 53.6 °F 51.8 °F 94% 30.00 in 10.0 mi SE 2.3 mph - N/A   Scattered Clouds
2:58 AM 51.1 °F 50.5 °F 98% 30.00 in 10.0 mi ESE 2.3 mph - N/A   Partly Cloudy
3:58 AM 52.5 °F 51.3 °F 95% 30.00 in 10.0 mi SE 2.3 mph - N/A   Overcast
4:28 AM 51.8 °F 51.8 °F 100% 29.99 in 10.0 mi SSE 2.3 mph - N/A   Mostly Cloudy
4:58 AM 52.7 °F 52.5 °F 99% 30.00 in 10.0 mi SE 2.3 mph - N/A   Overcast
5:18 AM 53.6 °F 53.6 °F 100% 29.99 in 10.0 mi SSE 1.2 mph - N/A   Overcast
5:28 AM 51.8 °F 51.8 °F 100% 29.99 in 10.0 mi SSE 3.5 mph - N/A   Overcast
5:33 AM 51.8 °F 51.8 °F 100% 29.99 in 10.0 mi South 2.3 mph - N/A   Mostly Cloudy
5:58 AM 51.6 °F 51.3 °F 99% 30.00 in 10.0 mi ESE 2.3 mph - N/A   Mostly Cloudy
6:58 AM 55.6 °F 53.6 °F 93% 30.00 in 10.0 mi South 3.5 mph - N/A   Overcast
7:38 AM 59.0 °F 51.8 °F 77% 29.99 in 10.0 mi Calm Calm - N/A   Overcast
7:43 AM 59.0 °F 51.8 °F 77% 29.99 in 10.0 mi NNW 1.2 mph - N/A   Overcast
7:48 AM 59.0 °F 51.8 °F 77% 29.99 in 10.0 mi Calm Calm - N/A   Overcast
7:58 AM 58.6 °F 52.7 °F 81% 30.00 in 10.0 mi SSE 3.5 mph - N/A   Overcast
8:23 AM 59.0 °F 51.8 °F 77% 29.99 in 10.0 mi WSW 4.6 mph - N/A   Overcast
8:43 AM 60.8 °F 51.8 °F 72% 29.99 in 10.0 mi West 3.5 mph - N/A   Overcast
8:53 AM 60.8 °F 51.8 °F 72% 29.99 in 10.0 mi SW 4.6 mph - N/A   Mostly Cloudy
8:58 AM 60.3 °F 51.3 °F 72% 30.00 in 10.0 mi Variable 4.6 mph - N/A   Mostly Cloudy
9:08 AM 60.8 °F 50.0 °F 68% 29.99 in 10.0 mi SSW 5.8 mph - N/A   Mostly Cloudy
9:58 AM 61.7 °F 49.3 °F 64% 29.98 in 10.0 mi SSW 5.8 mph - N/A   Scattered Clouds
10:58 AM 63.0 °F 48.7 °F 60% 29.98 in 10.0 mi SSW 5.8 mph - N/A   Mostly Cloudy
11:58 AM 63.9 °F 50.2 °F 61% 29.96 in 10.0 mi NW 6.9 mph - N/A   Mostly Cloudy
12:58 PM 68.5 °F 46.9 °F 46% 29.95 in 10.0 mi West 9.2 mph - N/A   Scattered Clouds
1:25 PM 69.8 °F 44.6 °F 40% 29.94 in 10.0 mi SW 12.7 mph 25.3 mph N/A   Mostly Cloudy
1:58 PM 70.5 °F 43.3 °F 37% 29.94 in 10.0 mi SW 15.0 mph 19.6 mph N/A   Mostly Cloudy
2:58 PM 70.2 °F 45.5 °F 41% 29.93 in 10.0 mi WNW 11.5 mph - N/A   Mostly Cloudy
3:58 PM 68.4 °F 46.2 °F 45% 29.93 in 10.0 mi WNW 12.7 mph - N/A   Overcast
4:13 PM 69.8 °F 48.2 °F 46% 29.92 in 10.0 mi West 12.7 mph 19.6 mph N/A   Overcast
4:58 PM 70.2 °F 47.3 °F 44% 29.92 in 10.0 mi West 15.0 mph 23.0 mph N/A   Mostly Cloudy
5:41 PM 66.2 °F 48.2 °F 52% 29.93 in 10.0 mi West 13.8 mph - N/A Rain , Thunderstorm Light Thunderstorms and Rain
5:42 PM 66.2 °F 48.2 °F 52% 29.93 in 10.0 mi West 13.8 mph - N/A Rain , Thunderstorm Light Thunderstorms and Rain
5:59 PM 65.1 °F 48.0 °F 54% 29.94 in 10.0 mi WNW 15.0 mph - N/A Rain , Thunderstorm Light Thunderstorms and Rain
6:15 PM 66.2 °F 48.2 °F 52% 29.94 in 10.0 mi WSW 11.5 mph - N/A Thunderstorm Thunderstorm
6:35 PM 64.4 °F 48.2 °F 56% 29.94 in 10.0 mi SW 11.5 mph - N/A Rain , Thunderstorm Light Thunderstorms and Rain
6:45 PM 66.2 °F 50.0 °F 56% 29.94 in 10.0 mi WSW 8.1 mph - N/A Rain , Thunderstorm Light Thunderstorms and Rain
6:59 PM 64.9 °F 49.3 °F 57% 29.96 in 10.0 mi Variable 4.6 mph - N/A   Overcast
7:19 PM 66.2 °F 50.0 °F 56% 29.94 in 10.0 mi WSW 9.2 mph - N/A Rain Light Rain
7:58 PM 62.1 °F 51.8 °F 69% 29.95 in 10.0 mi West 10.4 mph - 0.00 in Rain Light Rain
8:06 PM 62.6 °F 51.8 °F 68% 29.94 in 10.0 mi West 10.4 mph - N/A   Scattered Clouds
8:58 PM 60.4 °F 49.1 °F 66% 29.96 in 10.0 mi WSW 6.9 mph - 0.00 in   Overcast
9:58 PM 58.1 °F 50.2 °F 75% 29.97 in 10.0 mi West 8.1 mph - N/A   Mostly Cloudy
10:48 PM 57.2 °F 50.0 °F 77% 29.96 in 10.0 mi West 3.5 mph - N/A   Mostly Cloudy
10:58 PM 56.8 °F 50.7 °F 80% 29.97 in 10.0 mi West 3.5 mph - 0.01 in   Mostly Cloudy
11:38 PM 51.8 °F 50.0 °F 94% 29.98 in 10.0 mi South 5.8 mph - N/A   Scattered Clouds
11:58 PM 50.7 °F 48.0 °F 90% 29.99 in 10.0 mi SSW 4.6 mph - N/A   Clear